[[{"header":{"parameterUnit":"m.s-1","parameterCategory":1,"la1":30.2991,"la2":30.254,"lo1":-89.0895,"lo2":-89.0444,"dy":0.0017,"dx":0.0017,"nx":28,"ny":28,"refTime":"2025-02-12T03:00:00:Z","depth":0,"parameterNumber":2,"parameterNumberName":"U-component_of_WINDS"},"data":[0,0,0,0,0,0,0,0,0,0,0,0,0,0,0,0,0,0,0,0,0,0,0,0,0,0,0,0,0,0,0,0,0,0,0,0,0,0,0,0,0,0,0,0,0,0,0,0,0,0,0,0,0,0,0,0,0,0,0.707,0.7069,0,0.698,0.6979,0.6978,0.6916,0.6915,0.6915,0.6915,0.6823,0.6821,0.6819,0,0,0,0,0,0,0,0,0,0,0,0,0,0.7191,0.7189,0.7071,0.7069,0.7068,0.698,0.6979,0.6978,0.6916,0.6915,0.6915,0.6914,0.6824,0.6822,0.6819,0,0,0,0,0,0,0,0,0,0,0,0,0,0.7123,0.7188,0.7071,0.7027,0.7022,0.6981,0.6979,0.6978,0.6916,0.6915,0.6915,0.6914,0.6825,0.6822,0.6819,0.6814,0,0,0.681,0.6808,0,0,0,0,0,0,0,0,0.7127,0.7119,0.7034,0.703,0.7024,0.6959,0.6988,0.6923,0.6916,0.6956,0.6915,0.6914,0.6869,0.6862,0.6847,0.681,0.6806,0.6809,0.6808,0.6806,0.6805,0,0,0,0,0,0,0,0.7132,0.7123,0.7035,0.7033,0.7027,0.7012,0.7002,0.6975,0.6918,0.6953,0.6948,0.6938,0.6866,0.685,0.6844,0.6805,0.6809,0.6807,0.6805,0.6804,0.676,0.6761,0,0,0,0,0,0,0.7144,0.7127,0.7038,0.7032,0.7075,0.701,0.6999,0.698,0.6918,0.6908,0.6939,0.6936,0.6855,0.6848,0.6841,0.6832,0.6806,0.6803,0.6802,0.676,0.676,0.6761,0,0,0,0,0,0,0.7146,0.7136,0.7041,0.7078,0.7065,0.7009,0.6989,0.6979,0.6963,0.6907,0.6897,0.6933,0.6854,0.6845,0.6821,0.6828,0.6802,0.6799,0.6759,0.676,0.6761,0.6813,0,0,0,0,0,0,0.715,0.7138,0.7135,0.7079,0.7063,0.7023,0.6989,0.6978,0.6958,0.6952,0.6899,0.6889,0.6853,0.6826,0.6818,0.6823,0.6797,0.6758,0.6759,0.6761,0.6811,0.6816,0.682,0,0,0,0,0,0.7155,0.7153,0.7135,0.7125,0.7059,0.7024,0.7015,0.6973,0.6958,0.6955,0.692,0.6891,0.6828,0.6824,0.6815,0.6819,0.6758,0.6759,0.676,0.6809,0.6815,0.682,0,0,0,0,0,0,0.7212,0.7145,0.7124,0.7104,0.707,0.7013,0.7008,0.6981,0.695,0.6947,0.6897,0.6885,0.6867,0.684,0.6837,0.6811,0.6789,0.6789,0.6829,0.6835,0.6839,0.6846,0.6795,0,0,0,0,0,0.7222,0.7199,0.7142,0.713,0.7114,0.7064,0.7047,0.7018,0.6981,0.6966,0.6929,0.6894,0.6866,0.6849,0.682,0.6807,0.6794,0.6805,0.681,0.6814,0.6814,0.6805,0.6809,0.6766,0.6766,0.6766,0,0,0.7243,0.7204,0.7192,0.7141,0.7111,0.7088,0.7052,0.703,0.7013,0.6963,0.6938,0.691,0.6867,0.6849,0.6839,0.6826,0.6824,0.6816,0.682,0.6817,0.6807,0.6812,0.6815,0.6767,0.6767,0.6767,0,0,0.727,0.7238,0.7224,0.7195,0.715,0.7117,0.7114,0.7062,0.7041,0.7015,0.6977,0.6957,0.691,0.6882,0.6861,0.6878,0.6851,0.6871,0.6896,0.6888,0.6891,0.6894,0.69,0.6903,0.6871,0.6871,0.6871,0,0.7302,0.7266,0.7221,0.7201,0.718,0.7133,0.712,0.7094,0.7042,0.7029,0.7016,0.6957,0.6925,0.6899,0.6904,0.6889,0.6884,0.6876,0.6894,0.6897,0.6899,0.6904,0.6907,0.6874,0.6874,0.6873,0.6873,0,0.7307,0.7283,0.7278,0.7229,0.7207,0.7191,0.7144,0.7128,0.7101,0.707,0.7045,0.7005,0.6968,0.696,0.6933,0.6931,0.6925,0.6904,0.688,0.6906,0.691,0.6912,0.6878,0.6877,0.6876,0.6875,0,0,0.7366,0.7294,0.7293,0.727,0.7218,0.7198,0.718,0.7144,0.7131,0.7097,0.7081,0.7043,0.7023,0.7,0.697,0.6963,0.698,0.6943,0.6941,0.6951,0.6975,0.6991,0.6994,0.6962,0.6962,0.6962,0.6979,0,0.7385,0.7349,0.7309,0.7287,0.7265,0.7221,0.7205,0.7172,0.7143,0.712,0.7087,0.7061,0.7037,0.7023,0.7014,0.698,0.6984,0.6978,0.6946,0.6946,0.6958,0.6996,0.7013,0.7031,0.698,0.698,0.6981,0,0.7401,0.737,0.7346,0.7296,0.7285,0.7272,0.7235,0.7214,0.7176,0.7155,0.713,0.7098,0.7077,0.7057,0.7028,0.7025,0.701,0.6991,0.6991,0.6986,0.6965,0.6993,0.7035,0.7038,0.6983,0.6983,0.6982,0,0.7447,0.7398,0.7378,0.736,0.7302,0.7293,0.7269,0.7229,0.721,0.7179,0.7166,0.7133,0.7115,0.7091,0.7051,0.704,0.7027,0.7003,0.7009,0.701,0.7008,0.7008,0.7048,0.6999,0.6999,0.6999,0.6999,0,0.7471,0.7458,0.7398,0.7385,0.737,0.7324,0.7311,0.7282,0.7248,0.7229,0.719,0.7174,0.7123,0.71,0.707,0.7051,0.7043,0.7026,0.7018,0.7029,0.7031,0.7018,0.7016,0.6999,0.6999,0.6999,0.6999,0,0.7519,0.7478,0.7453,0.74,0.7386,0.7377,0.7332,0.7319,0.7288,0.7265,0.7257,0.7208,0.718,0.7138,0.7098,0.7077,0.7063,0.705,0.7076,0.7071,0.7079,0.7079,0.7112,0.7114,0.7064,0.7064,0.7065,0,0.7537,0.7526,0.7472,0.7457,0.7434,0.741,0.739,0.7346,0.7327,0.7283,0.7275,0.7244,0.7217,0.7175,0.7136,0.7105,0.7091,0.7104,0.7086,0.7098,0.7091,0.7092,0.7091,0.7109,0.7109,0.711,0.7111,0,0.7573,0.7554,0.7527,0.7494,0.7472,0.7443,0.7413,0.7403,0.7352,0.7333,0.7304,0.7283,0.7242,0.7212,0.7176,0.7151,0.7123,0.7117,0.7117,0.7128,0.7143,0.7135,0.7088,0.7116,0.7116,0.7115,0.7115,0.7115,0.7606,0.7595,0.7555,0.7527,0.75,0.7473,0.7458,0.7425,0.74,0.7363,0.7339,0.7311,0.7274,0.7223,0.7199,0.7178,0.7165,0.7165,0.7165,0.7165,0.717,0.7148,0.7171,0.7171,0.7171,0.717,0.717,0,0.764,0.7613,0.7588,0.7547,0.7525,0.7501,0.7466,0.745,0.7426,0.7394,0.7368,0.7335,0.7306,0.7265,0.7234,0.7224,0.721,0.7217,0.7217,0.7212,0.7182,0.7186,0.7229,0.7229,0.7229,0.7229,0.7229,0.7229,0.7656,0.7635,0.7611,0.7577,0.755,0.7523,0.7505,0.748,0.7454,0.7419,0.7395,0.7369,0.7334,0.7299,0.7272,0.726,0.7251,0.7262,0.7247,0.7219,0.7214,0.7209,0.7212,0.726,0.726,0.7278,0.7278,0.7278]},{"header":{"parameterUnit":"m.s-1","parameterCategory":1,"la1":30.2991,"la2":30.254,"lo1":-89.0895,"lo2":-89.0444,"dy":0.0017,"dx":0.0017,"nx":28,"ny":28,"refTime":"2025-02-12T03:00:00:Z","depth":0,"parameterNumber":3,"parameterNumberName":"V-component_of_WINDS"},"data":[0,0,0,0,0,0,0,0,0,0,0,0,0,0,0,0,0,0,0,0,0,0,0,0,0,0,0,0,0,0,0,0,0,0,0,0,0,0,0,0,0,0,0,0,0,0,0,0,0,0,0,0,0,0,0,0,0,0,6.9779,6.9782,0,7.0034,7.0037,7.0039,7.0115,7.0114,7.0113,7.0112,7.0378,7.0386,7.0394,0,0,0,0,0,0,0,0,0,0,0,0,0,6.9367,6.9374,6.9779,6.9782,6.9785,7.0033,7.0037,7.004,7.0116,7.0114,7.0112,7.0111,7.0375,7.0385,7.0395,0,0,0,0,0,0,0,0,0,0,0,0,0,6.9576,6.9377,6.9779,6.9853,6.9862,7.0032,7.0037,7.0041,7.0116,7.0114,7.0112,7.011,7.0372,7.0384,7.0396,7.0513,0,0,7.0435,7.044,0,0,0,0,0,0,0,0,6.9564,6.9591,6.9839,6.9848,6.9859,7.0041,6.9989,7.02,7.0117,7.002,7.0112,7.0109,7.0268,7.0289,7.0341,7.0526,7.0537,7.0436,7.0443,7.0449,7.0452,0,0,0,0,0,0,0,6.955,6.9581,6.988,6.9842,6.9854,6.9876,6.9904,7.003,7.0152,7.0028,7.0034,7.0063,7.0273,7.0329,7.0348,7.0541,7.0435,7.0447,7.0454,7.0459,7.084,7.0843,0,0,0,0,0,0,6.9522,6.9568,6.9872,6.9888,6.9703,6.9885,6.9916,6.9984,7.0151,7.0174,7.0064,7.0065,7.0308,7.0333,7.0357,7.0509,7.0449,7.046,7.0467,7.0838,7.0841,7.0844,0,0,0,0,0,0,6.9512,6.9548,6.9862,6.973,6.9771,6.9894,6.9971,6.999,7.0046,7.0178,7.0201,7.0098,7.0308,7.034,7.0475,7.0519,7.0466,7.0477,7.0834,7.0838,7.0842,7.0809,0,0,0,0,0,0,6.95,6.9544,6.9587,6.973,6.9778,6.9972,6.9973,6.9997,7.0067,7.0071,7.0216,7.0238,7.0309,7.0456,7.0487,7.0535,7.0487,7.0831,7.0836,7.0841,7.0807,7.0812,7.0816,0,0,0,0,0,6.9485,6.9568,6.9589,6.9625,6.9834,6.9974,7.0002,7.0079,7.007,7.0117,7.0202,7.0234,7.0508,7.0469,7.0505,7.0557,7.0829,7.0835,7.084,7.0805,7.0811,7.0816,0,0,0,0,0,0,6.9429,6.9588,6.9613,6.9744,6.9845,6.9987,7.0047,7.0082,7.0189,7.0189,7.0282,7.0315,7.0444,7.0514,7.0467,7.0682,7.067,7.0683,7.0631,7.0637,7.0641,7.0623,7.0497,0,0,0,0,0,6.9431,6.9529,6.9664,6.9767,6.9816,6.9923,6.9987,7.0038,7.0147,7.019,7.0285,7.0392,7.0503,7.0574,7.0683,7.0817,7.0853,7.0872,7.0876,7.0879,7.089,7.0971,7.0982,7.0863,7.0863,7.0863,0,0,6.9438,6.9538,6.9594,6.9758,6.9842,6.9945,6.9958,7.0065,7.0143,7.0207,7.0341,7.0414,7.054,7.0676,7.0741,7.0739,7.0931,7.0886,7.0887,7.0898,7.0978,7.0989,7.0999,7.0867,7.0866,7.0866,0,0,6.9504,6.9587,6.9683,6.9768,6.9894,6.9965,6.9988,7.0126,7.0177,7.0312,7.0364,7.0459,7.0647,7.0735,7.0805,7.0907,7.0942,7.094,7.0963,7.1041,7.1051,7.106,7.11,7.1113,7.0951,7.0951,7.0951,0,6.9497,6.965,6.9729,6.9834,6.9907,6.9969,7.007,7.0149,7.0305,7.0356,7.035,7.059,7.0678,7.0838,7.0864,7.0917,7.0949,7.0925,7.1042,7.1052,7.1062,7.1101,7.1116,7.095,7.095,7.095,7.095,0,6.9638,6.9744,6.9807,6.9956,7.0036,7.0138,7.0236,7.0308,7.0353,7.0425,7.0565,7.0674,7.0808,7.0849,7.0894,7.1017,7.1012,7.1023,7.1014,7.1071,7.111,7.1125,7.0949,7.0949,7.0949,7.0949,0,0,6.9673,6.9866,6.9888,6.9958,7.0104,7.019,7.0297,7.0426,7.0488,7.0595,7.069,7.0849,7.0861,7.094,7.0996,7.1064,7.1144,7.1069,7.1073,7.1081,7.1291,7.1283,7.1299,7.1167,7.117,7.1173,7.1281,0,6.9759,6.9951,7.0026,7.0183,7.0285,7.0347,7.0441,7.0543,7.0614,7.0713,7.0793,7.0906,7.0912,7.0961,7.103,7.1119,7.1187,7.1112,7.126,7.1264,7.1228,7.1319,7.131,7.1407,7.1297,7.1299,7.1301,0,6.9885,6.9992,7.0159,7.0296,7.0341,7.0424,7.0551,7.0644,7.0762,7.081,7.0899,7.0952,7.1071,7.1053,7.122,7.1167,7.1233,7.1286,7.1291,7.131,7.1287,7.1342,7.144,7.1455,7.1325,7.1323,7.1321,0,6.9898,7.0084,7.0209,7.0267,7.0429,7.0486,7.0557,7.0673,7.0748,7.086,7.091,7.1035,7.1104,7.1201,7.1287,7.1265,7.1448,7.1436,7.1495,7.1493,7.1532,7.1528,7.1643,7.1569,7.1569,7.1569,7.1568,0,6.9987,7.0088,7.0218,7.0295,7.0411,7.0499,7.0612,7.0687,7.0791,7.0886,7.0948,7.1037,7.1144,7.1249,7.1317,7.1448,7.1478,7.1523,7.154,7.1519,7.1513,7.1564,7.1561,7.1573,7.1572,7.1571,7.157,0,7.0022,7.0113,7.0254,7.0396,7.0434,7.0514,7.0637,7.0717,7.0791,7.0912,7.0945,7.1064,7.119,7.1286,7.1449,7.1496,7.1636,7.1653,7.1595,7.1605,7.1659,7.1653,7.1812,7.184,7.1744,7.1745,7.1745,0,7.0074,7.0153,7.0304,7.0371,7.0441,7.0549,7.0626,7.0717,7.0794,7.0937,7.1,7.113,7.1239,7.1438,7.1541,7.1668,7.1691,7.1738,7.171,7.1687,7.1696,7.1691,7.1701,7.1742,7.1742,7.1743,7.1743,0,7.0158,7.02,7.0306,7.043,7.0519,7.0621,7.0725,7.0777,7.0888,7.0973,7.1101,7.1186,7.1354,7.1484,7.1621,7.1698,7.1741,7.1751,7.1772,7.1752,7.1716,7.174,7.1608,7.1747,7.1747,7.1746,7.1746,7.1746,7.0205,7.028,7.0398,7.0516,7.0604,7.07,7.0782,7.0868,7.0976,7.1119,7.1166,7.1301,7.1422,7.1611,7.1689,7.1798,7.1799,7.1828,7.1836,7.1843,7.1843,7.1697,7.1823,7.1823,7.1823,7.1823,7.1823,0,7.0295,7.0375,7.0482,7.0625,7.0719,7.0749,7.0866,7.0944,7.106,7.1168,7.1275,7.1425,7.1553,7.1666,7.1799,7.1865,7.1889,7.1897,7.1895,7.1913,7.1832,7.1802,7.1877,7.1877,7.1877,7.1877,7.1876,7.1876,7.0353,7.0481,7.0538,7.0712,7.0792,7.0923,7.0988,7.1078,7.1166,7.133,7.1436,7.1508,7.1621,7.1763,7.1883,7.1913,7.1961,7.1966,7.2001,7.1924,7.1918,7.1912,7.1884,7.1974,7.1974,7.2073,7.2074,7.2075]}]]